TITAN 3C TRANSTAGE DEB, 43453

Orbit data source: Space-Track

TITAN 3C TRANSTAGE DEB, 43453 is space debris in GEO originally from a launch on Sun, 09 Feb 1969 UTC launched from the Air Force Eastern Test Range (AFETR). Debris objects in space refer to the collection of defunct objects orbiting the Earth. Examples of debris include non-operational satellites, rocket bodies, and fragments generated from explosions, collisions, or faulty payload assembly.

Loading next visibility...
Identifier
43453, 1969-013L
Orbit
GEO
Country
Flag of USUS
Related business
Manufacturer
Martin Marietta
Mission
Spacecraft
Bus & Motor
Unknown
Mass
Unknown
Launch date (UTC)
1969-02-09 (57 years ago)
Launch vehicle
Unknown
Launch site
Air Force Eastern Test Range (AFETR)
Object type
Payload
Rocket body
Debris
Shape & HBR
Unknown shape, 1.1 m
Radar Cross Section
RCS unknown

Expand to show TLE details & history
Last TLE update: 18 hours ago

TLE from 18 hours ago
0 TITAN 3C TRANSTAGE DEB
1 43453U 69013L   26023.35743509 -.00000131  00000-0  00000-0 0  9993
2 43453   1.3531 148.5879 0617504 330.7384  25.2008  1.07379403 30483
Epoch: 2026-01-23T08:34Z
TLE epoch observation values (Epoch: 2026-01-23T08:34:42.391Z)
Latitude
Longitude
-103.58557°
Altitude
31,674.486 km
Speed
3.325 km/s
True Right ascension
09h 51m 09s
True Declination
0° 00' 00"
Sunlit
Object was in daylight at epoch
Visualization orbit readout
Latitude
Unknown
Longitude
Unknown
Altitude
Unknown
Speed
Unknown
Apparent Right ascension
Unknown
Apparent Declination
Unknown
Sunlit
N/A
Visualization observer readout
Local Sidereal Time
03:34:15
Azimuth
Unknown
Elevation
Unknown
Doppler factor
Unknown
Orbital elements
Apogee altitude
36,393.486 km
Perigee altitude
31,418.372 km
Semi-major axis
40,284.066 km
Eccentricity
0.06175
Inclination
1.3531°
RAAN
148.5879°
Arg. of periapsis
330.7384°
True anomaly
28.43748°
Mean anomaly
25.2008°
Eccentric anomaly
26.79579°
Mean motion
0.26844 °/min
Orbital period
1,341.09 mins
BSTAR
0
Loading maneuver chart data...
Computing Atmospheric mass density...

Documentation

Showing up to 5 results
|